N1IJV-10 Weather Reports


time (UTC)temp
C
wind
direction
speed
KPH
gust
KPH
rain 1hr
cm
rain 24hr
cm
rain mn
cm
humidity
%
barometer
mb
20260505041428 15 348 0.0 1.6 0.00 0.08 0.08 76 1000.9
20260505040925 15 85 1.6 3.2 0.00 0.08 0.08 75 1000.8
20260505040423 16 105 1.6 3.2 0.00 0.08 0.08 74 1000.9
20260505035919 16 114 1.6 3.2 0.00 0.08 0.08 74 1001.1
20260505035415 16 121 1.6 1.6 0.00 0.08 0.08 73 1001.2
20260505034913 16 154 0.0 1.6 0.00 0.08 0.08 73 1000.8
20260505034409 16 239 3.2 3.2 0.00 0.08 0.08 74 1001.2
20260505033906 16 227 3.2 4.8 0.00 0.08 0.08 75 1001.2
20260505033403 16 235 3.2 3.2 0.00 0.08 0.08 75 1000.8
20260505032901 16 188 3.2 3.2 0.00 0.08 0.08 74 1001.1
20260505032357 16 163 4.8 4.8 0.00 0.08 0.08 74 1000.8
20260505031854 16 123 1.6 8.0 0.00 0.08 0.08 74 1000.5
20260505031351 16 155 1.6 4.8 0.00 0.08 0.08 74 1000.4
20260505030848 16 155 1.6 3.2 0.00 0.08 0.08 74 1000.6
20260505030344 16 138 1.6 3.2 0.00 0.08 0.08 75 1000.3
20260505025840 16 68 1.6 3.2 0.00 0.08 0.08 75 1000.3
20260505025338 16 101 1.6 3.2 0.00 0.08 0.08 74 1000.3
20260505024836 16 356 3.2 4.8 0.00 0.08 0.08 74 1000.7
20260505024333 16 300 4.8 8.0 0.00 0.08 0.08 75 1000.7
20260505023830 16 88 1.6 4.8 0.00 0.08 0.08 76 1000.5
20260505023327 16 131 0.0 0.0 0.00 0.08 0.08 76 1000.5
20260505022824 16 287 4.8 4.8 0.00 0.08 0.08 74 1000.0
20260505022321 17 348 3.2 4.8 0.00 0.08 0.08 74 1000.1
20260505021819 17 154 1.6 4.8 0.00 0.08 0.08 72 999.7
20260505021315 17 121 1.6 4.8 0.00 0.08 0.08 73 999.6
20260505020811 17 236 1.6 4.8 0.00 0.08 0.08 72 999.5
20260505020307 17 141 1.6 3.2 0.00 0.08 0.08 73 999.4
20260505015804 17 149 3.2 3.2 0.00 0.08 0.08 73 999.1
20260505015301 17 119 1.6 3.2 0.00 0.08 0.08 73 999.1
20260505014758 17 264 3.2 4.8 0.00 0.08 0.08 73 999.0
20260505014255 17 268 3.2 3.2 0.00 0.08 0.08 72 998.9
20260505013751 17 95 1.6 4.8 0.00 0.08 0.08 72 998.7
20260505013249 17 191 4.8 8.0 0.00 0.08 0.08 71 998.6
20260505012747 17 303 1.6 9.7 0.00 0.08 0.08 72 998.8
20260505012244 17 137 1.6 8.0 0.00 0.08 0.08 73 998.8
20260505011739 17 72 1.6 9.7 0.00 0.08 0.08 74 999.0
20260505011237 17 242 4.8 12.9 0.00 0.08 0.08 74 998.6
20260505010732 17 255 4.8 11.3 0.00 0.08 0.08 76 998.7
20260505010229 17 257 4.8 4.8 0.00 0.08 0.08 77 998.4
20260505005726 17 203 3.2 9.7 0.00 0.08 0.08 76 998.6
20260505005223 17 169 6.4 9.7 0.00 0.08 0.08 76 998.3
20260505004720 18 250 6.4 9.7 0.00 0.08 0.08 76 998.6
20260505004216 18 171 6.4 9.7 0.00 0.08 0.08 77 998.6
20260505003713 18 154 4.8 4.8 0.00 0.08 0.08 77 998.8
20260505003211 18 149 3.2 8.0 0.00 0.08 0.08 75 998.6
20260505002707 18 130 0.0 1.6 0.00 0.08 0.08 73 997.6
20260505002205 19 215 1.6 3.2 0.00 0.08 0.08 71 997.5
20260505001702 19 129 1.6 3.2 0.00 0.08 0.08 69 997.4
20260505001159 19 188 4.8 8.0 0.00 0.08 0.08 68 997.8
20260505000656 19 268 3.2 8.0 0.00 0.08 0.08 69 998.1
20260505000154 18 175 3.2 3.2 0.00 0.08 0.08 73 998.6
20260504235650 18 104 3.2 4.8 0.00 0.08 0.08 76 998.4
20260504235147 17 103 1.6 1.6 0.00 0.08 0.08 84 998.2
20260504234644 16 104 0.0 0.0 0.00 0.08 0.08 87 997.8
20260504234142 16 98 0.0 0.0 0.00 0.08 0.08 87 997.6
20260504233637 16 108 0.0 0.0 0.00 0.08 0.08 87 997.8
20260504233133 16 90 0.0 0.0 0.00 0.08 0.08 84 998.0
20260504232631 16 130 0.0 0.0 0.18 0.08 0.08 80 998.2
20260504232128 17 92 0.0 1.6 0.30 0.05 0.05 79 997.9
20260504231624 18 93 1.6 4.8 0.18 0.03 0.03 71 998.1
20260504231115 20 213 4.8 11.3 0.00 0.00 0.00 62 998.2
20260504230611 21 331 9.7 11.3 0.00 0.00 0.00 62 997.9
20260504230110 22 44 1.6 3.2 0.00 0.00 0.00 62 997.1
20260504225608 22 86 1.6 3.2 0.00 0.00 0.00 58 997.1
20260504225104 22 108 0.0 3.2 0.00 0.00 0.00 57 997.1
20260504224601 22 99 0.0 3.2 0.00 0.00 0.00 57 997.4
20260504224058 22 133 0.0 4.8 0.00 0.00 0.00 55 997.3
20260504223555 23 220 1.6 4.8 0.00 0.00 0.00 53 997.4
20260504223050 23 153 1.6 8.0 0.00 0.00 0.00 55 998.1
20260504222548 23 212 3.2 8.0 0.00 0.00 0.00 55 997.9
20260504222045 22 169 6.4 12.9 0.00 0.00 0.00 56 998.0
20260504221542 23 294 8.0 14.5 0.00 0.00 0.00 55 998.1
20260504221039 23 317 8.0 14.5 0.00 0.00 0.00 52 997.8
20260504220535 23 230 6.4 12.9 0.00 0.00 0.00 52 997.9
20260504220032 23 219 6.4 11.3 0.00 0.00 0.00 48 997.9
20260504215529 25 69 6.4 16.1 0.00 0.00 0.00 44 997.8
20260504215026 25 276 8.0 12.9 0.00 0.00 0.00 42 997.6
20260504214522 25 60 8.0 16.1 0.00 0.00 0.00 42 997.5
20260504214019 25 206 8.0 12.9 0.00 0.00 0.00 40 997.7
20260504213515 26 217 6.4 11.3 0.00 0.00 0.00 40 997.9
20260504213012 26 186 4.8 17.7 0.00 0.00 0.00 40 998.0
20260504212508 26 190 4.8 4.8 0.00 0.00 0.00 39 998.1
20260504212006 26 221 6.4 9.7 0.00 0.00 0.00 38 998.1
20260504211503 27 238 4.8 12.9 0.00 0.00 0.00 39 998.1
20260504211000 27 237 4.8 12.9 0.00 0.00 0.00 37 997.9
20260504210456 26 202 4.8 11.3 0.00 0.00 0.00 41 998.5
20260504205953 25 258 3.2 14.5 0.00 0.00 0.00 39 998.2
20260504205451 26 90 1.6 14.5 0.00 0.00 0.00 39 998.3
20260504204949 26 186 8.0 14.5 0.00 0.00 0.00 37 998.2
20260504204447 26 298 11.3 22.5 0.00 0.00 0.00 39 998.4
20260504203945 26 251 3.2 8.0 0.00 0.00 0.00 40 998.4
20260504203443 27 181 4.8 22.5 0.00 0.00 0.00 38 998.5
20260504202939 27 220 8.0 12.9 0.00 0.00 0.00 37 998.3
20260504202436 27 205 8.0 17.7 0.00 0.00 0.00 36 998.4
20260504201932 27 42 4.8 16.1 0.00 0.00 0.00 38 998.4
20260504201430 26 216 1.6 3.2 0.00 0.00 0.00 41 998.3
20260504200927 27 116 4.8 11.3 0.00 0.00 0.00 38 998.5
20260504200424 27 118 9.7 14.5 0.00 0.00 0.00 37 998.6
20260504195921 27 204 4.8 14.5 0.00 0.00 0.00 38 998.5
20260504195416 27 113 1.6 20.9 0.00 0.00 0.00 40 998.8
20260504194913 26 135 4.8 11.3 0.00 0.00 0.00 40 998.7
20260504194409 26 205 1.6 9.7 0.00 0.00 0.00 42 999.0
20260504193905 27 105 4.8 16.1 0.00 0.00 0.00 39 999.0
20260504193403 26 227 1.6 9.7 0.00 0.00 0.00 44 999.1
20260504192901 25 119 3.2 11.3 0.00 0.00 0.00 41 999.3
20260504192358 25 225 4.8 8.0 0.00 0.00 0.00 43 999.2
20260504191857 25 340 6.4 14.5 0.00 0.00 0.00 42 999.3
20260504191354 27 209 11.3 14.5 0.00 0.00 0.00 38 999.0
20260504190849 26 267 4.8 11.3 0.00 0.00 0.00 38 999.2
20260504190346 27 357 3.2 11.3 0.00 0.00 0.00 38 999.2
20260504185843 26 74 3.2 8.0 0.00 0.00 0.00 37 999.0
20260504185339 26 197 8.0 17.7 0.00 0.00 0.00 38 999.3
20260504184835 26 208 3.2 16.1 0.00 0.00 0.00 39 999.3
20260504184332 26 229 16.1 22.5 0.00 0.00 0.00 37 999.4
20260504183827 26 165 4.8 14.5 0.00 0.00 0.00 38 999.2
20260504183325 26 125 3.2 4.8 0.00 0.00 0.00 36 999.5
20260504182822 26 156 1.6 14.5 0.00 0.00 0.00 37 999.5
20260504182320 26 212 6.4 12.9 0.00 0.00 0.00 33 999.5
20260504181817 26 219 8.0 11.3 0.00 0.00 0.00 34 999.5
20260504181314 26 338 6.4 11.3 0.00 0.00 0.00 36 999.5
20260504180813 25 263 3.2 8.0 0.00 0.00 0.00 42 999.6
20260504180311 25 239 6.4 11.3 0.00 0.00 0.00 39 999.7
20260504175809 25 239 6.4 9.7 0.00 0.00 0.00 39 999.9
20260504175305 25 235 4.8 12.9 0.00 0.00 0.00 38 999.8
20260504174804 25 124 4.8 4.8 0.00 0.00 0.00 41 1000.0
20260504174301 25 153 6.4 9.7 0.00 0.00 0.00 40 999.8
20260504173757 25 166 3.2 12.9 0.00 0.00 0.00 38 1000.0
20260504173254 25 155 1.6 9.7 0.00 0.00 0.00 41 1000.1
20260504172751 25 236 11.3 16.1 0.00 0.00 0.00 38 1000.4
20260504172247 25 166 6.4 11.3 0.00 0.00 0.00 41 1000.2
20260504171743 24 263 6.4 12.9 0.00 0.00 0.00 41 1000.2
20260504171241 24 3 6.4 16.1 0.00 0.00 0.00 41 1000.3
20260504170738 23 42 1.6 11.3 0.00 0.00 0.00 42 1000.4
20260504170235 23 92 1.6 11.3 0.00 0.00 0.00 42 1000.4
20260504160153 22 260 6.4 11.3 0.00 0.00 0.00 45 1001.4
20260504151121 21 154 3.2 8.0 0.00 0.00 0.00 48 1002.0
20260504150619 21 11 1.6 4.8 0.00 0.00 0.00 50 1002.0
20260504150115 20 213 6.4 8.0 0.00 0.00 0.00 49 1002.1
20260504141044 18 176 4.8 8.0 0.00 0.00 0.00 57 1002.6
20260504140540 17 106 1.6 3.2 0.00 0.00 0.00 60 1002.8
20260504130505 13 108 0.0 4.8 0.00 0.00 0.00 73 1003.4
20260504110352 8 112 0.0 0.0 0.00 0.00 0.00 89 1003.6
20260504100309 8 97 0.0 1.6 0.00 0.00 0.00 87 1003.9
20260504081703 8 114 0.0 0.0 0.00 0.00 0.00 88 1003.7
20260504081159 8 91 0.0 1.6 0.00 0.00 0.00 90 1003.5
20260504080655 8 98 0.0 0.0 0.00 0.00 0.00 89 1003.6
20260504080152 8 118 0.0 0.0 0.00 0.00 0.00 89 1003.5
20260504070120 11 108 0.0 0.0 0.00 0.00 0.00 79 1004.4
20260504050508 13 116 0.0 1.6 0.00 0.00 0.00 74 1005.4
20260504050005 13 120 0.0 1.6 0.00 0.15 0.15 74 1005.4
20260504045501 13 168 1.6 3.2 0.00 0.15 0.15 73 1005.3
20260504044957 13 106 0.0 3.2 0.00 0.15 0.15 73 1005.2
20260504044455 13 112 0.0 1.6 0.00 0.15 0.15 73 1005.5
20260504043952 13 141 1.6 1.6 0.00 0.15 0.15 72 1005.2
20260504043449 13 102 0.0 1.6 0.00 0.15 0.15 72 1005.2
20260504042947 13 160 3.2 4.8 0.00 0.15 0.15 72 1005.3
20260504042443 13 261 1.6 4.8 0.00 0.15 0.15 71 1005.4